Regional Weather Roundup
Issued by NWS

Home | Current Version | Previous Version | Graphics & Text | Print | Product List | Glossary On
Versions: 1 2 3 4 5 6 7 8 9 10 11 12 13 14 15 16 17 18 19 20 21 22 23 24 25 26 27 28 29 30 31 32 33 34 35 36 37 38 39 40 41 42 43 44 45 46 47 48 49 50
604
ASUS45 KBOU 240707
RWRCO

WEATHER ROUNDUP FOR COLORADO
NATIONAL WEATHER SERVICE DENVER/BOULDER CO
100 AM MDT SUN JUL 24 2016

NOTE: "FAIR" INDICATES FEW OR NO CLOUDS BELOW 12000 FEET WITH NO
SIGNIFICANT WEATHER AND/OR OBSTRUCTIONS TO VISIBILITY.

COZ001>005-013-030-031-240800-
...NORTHWEST COLORADO...

CITY           SKY/WX    TMP DP  RH WIND       PRES   REMARKS
CRAIG          FAIR      60  43  53 SE6       30.22R
HAYDEN         FAIR      64  37  36 SE9       30.24
MEEKER         FAIR      66  45  46 N9        30.24R
MOUNT WERNER   NOT AVBL
STEAMBOAT SPGS FAIR      60  43  52 E3        30.27R
WALDEN         FAIR      54  39  58 E8        30.36F
$$

COZ006>008-011-240800-
...WEST CENTRAL VALLEYS...

CITY           SKY/WX    TMP DP  RH WIND       PRES   REMARKS
GRAND JUNCTION FAIR      81  39  22 S9        30.08R
MONTROSE       FAIR      69  43  38 CALM      30.17R
EAGLE          FAIR      64  43  45 CALM      30.28R
RIFLE          FAIR      71  43  36 S7        30.18R
DELTA          FAIR      74  47  37 CALM      30.12R
NUCLA          FAIR      66  43  42 SE7       30.20R
$$

COZ017>023-064>068-240800-
...SOUTHWEST COLORADO...

CITY           SKY/WX    TMP DP  RH WIND       PRES   REMARKS
DURANGO        FAIR      63  45  51 CALM      30.23R
CORTEZ         FAIR      63  45  51 N6        30.16S
PAGOSA SPRINGS FAIR      65  38  37 CALM      30.33R
TELLURIDE      FAIR      59  39  47 SE6       30.47R
WOLF CREEK PAS FAIR      55  32  41 NW3       30.71S
$$

COZ009-010-012-014-032>034-037-058>063-240800-
...CENTRAL COLORADO...

CITY           SKY/WX    TMP DP  RH WIND       PRES   REMARKS
ASPEN          FAIR      55  44  66 SW5       30.33R
BUENA VISTA    FAIR      56  41  56 W7        30.40R
COPPER MTN     FAIR      59  34  38 S13       30.69S
BERTHOUD PASS  FAIR      48  34  57 W5        30.72S
COTTONWOOD PAS FAIR      61  37  41 E5        30.54R
GUNNISON       FAIR      57  39  51 N8        30.37R
KREMMLING      FAIR      54  48  82 CALM      30.35R
LEADVILLE      FAIR      51  36  56 CALM      30.51F
MONARCH PASS   FAIR      50  36  57 E21       30.78S
SALIDA         FAIR      64  46  50 CALM      30.42F
SUNLIGHT       CLOUDY    61  34  36 NW5       30.62R
WILKERSON PASS FAIR      52  37  58 S8        30.67S
$$

COZ069>075-240800-
...SAN LUIS VALLEY/SANGRE DE CRISTO MOUNTAINS...

CITY           SKY/WX    TMP DP  RH WIND       PRES   REMARKS
ALAMOSA        FAIR      65  45  48 S8        30.33R
LA VETA PASS   MOCLDY    54  45  71 NE10      30.56S
SAGUACHE       FAIR      63  39  42 NW7       30.34S
$$

COZ035-036-038>040-240800-
...NORTHERN COLORADO FRONT RANGE...

CITY           SKY/WX    TMP DP  RH WIND       PRES   REMARKS
DENVER INTL AP MOCLDY    70  51  51 S5        30.17R
DMNS CITY PARK   N/A     72  50  46 E3G12     30.14F
AURORA         MOCLDY    69  52  53 S12       30.17F
FRONT RANGE AP NOT AVBL
ERIE MUNI ARPT FAIR      68  51  54 CALM      30.15F
BOULDER MUN AP FAIR      68  50  52 NW6       30.17S
CENTENNIAL     FAIR      69  49  48 S8        30.20S
BROOMFIELD     FAIR      70  48  46 NW6       30.19S
LONGMONT       FAIR      68  53  59 CALM      30.17F
$$

COZ041-046-047-076>085-087-088-240800-
...PIKES PEAK/PALMER DIVIDE AND SOUTHERN FOOTHILLS...

CITY           SKY/WX    TMP DP  RH WIND       PRES   REMARKS
COLO. SPRINGS  MOCLDY    69  51  52 SW6       30.27S
A. F. ACADEMY  MOCLDY    65  49  55 S6        30.28R
SCHRIEVER AFB  NOT AVBL
ELLICOTT       MIX PCPN N/A N/A N/A E14       30.25R
FALCON         FAIR      65  49  56 SE12      30.31R
FORT CARSON    CLOUDY    71  51  50 S2        30.24R
LIMON          FAIR      68  55  63 S10       30.17S
MONUMENT HILL  FAIR      61  50  67 SW6       30.32R
TRINIDAD       NOT AVBL
$$

COZ042>045-048>051-090-091-240800-
...NORTHEAST COLORADO...

CITY           SKY/WX    TMP DP  RH WIND       PRES   REMARKS
GREELEY ARPT   FAIR      63  55  77 NW6       30.15S
AKRON          FAIR      72  55  55 S8        30.11F
BURLINGTON     FAIR      75  53  46 NE5       30.10F
WRAY           FAIR      77  50  38 N7        30.05F
STERLING       FAIR      68  61  77 W7        30.07S
HOLYOKE        FAIR      90  39  17 NW14G20   30.03F
FORT MORGAN    FAIR      68  52  55 N7        30.11S
$$

COZ086-089-092>099-240800-
...SOUTHEAST COLORADO...

CITY           SKY/WX    TMP DP  RH WIND       PRES   REMARKS
PUEBLO         FAIR      75  52  44 NE5       30.17R
LA JUNTA       FAIR      71  61  70 N8        30.07S
LAMAR          FAIR      72  61  68 N12       30.01R
SPRINGFIELD      N/A     67  56  67 NE6       30.08S
$$




USA.gov is the U.S. government's official web portal to all federal, state and local government web resources and services.